Home > Time Zones > World Clock > Weather > Peru > Lima > Past weeks

Flag for Peru Weather past 2 weeks in Lima, Lima, Peru

Now
68 °F

Overcast.


Feels Like: 68 °F
Forecast: 67 / 76 °F
Wind: 8 mph from South

Location: Lima-Callao / Aerop. Internacional Jorgechavez

Current Time: Jul 2, 2015 at 10:36:44 PM

Latest Report: Jul 2, 2015 at 10:00 PM


Visibility: N/A

Pressure: 29.89 "Hg

Humidity: 78%

Dew point: 61 °F

Location of LimaLocation

Historic Weather in Lima — Graph

°F

Lima temperature yesterday

Maximum temperature yesterday: 77 °F (at 11:00 AM)
Minimum temperature yesterday: 66 °F (at 12:00 AM)
Average temperature yesterday: 70 °F

Past Weeks' High & Low Weather Summary

 TemperatureHumidityPressure
High77 °F (Jul 1, 11:00 AM)88% (Jun 21, 9:00 PM)30.01 "Hg (Jun 21, 9:00 PM)
Low66 °F (Jun 26, 3:00 AM)61% (Jun 18, 2:00 PM)29.80 "Hg (Jun 19, 2:00 PM)
Average70 °F77%29.90 "Hg
* Reported Jun 17 9:00 PM — Jul 2 9:00 PM, Lima, Weather by CustomWeather, © 2015

Note: Actual official high and low records may vary slightly from our data, if they occured in-between our weather recording intervals... More about our weather records

Advertising

Lima weather history for previous 24 hours

 ConditionsComfort  
Time TempWeatherWind HumidityBarometerVisibility
9:00 PM
Thu, Jul 2
68 °FOvercast.8 mph78%29.89 "HgN/A
8:00 PM68 °FOvercast.8 mph78%29.86 "HgN/A
7:00 PM68 °FOvercast.8 mph78%29.83 "HgN/A
6:00 PM68 °FMostly cloudy.10 mph78%29.83 "HgN/A
5:00 PM68 °FMore clouds than sun.12 mph78%29.83 "HgN/A
4:00 PM70 °FMore clouds than sun.13 mph73%29.83 "HgN/A
3:00 PM70 °FMore clouds than sun.13 mph73%29.83 "HgN/A
2:00 PM72 °FMore clouds than sun.12 mph73%29.86 "HgN/A
1:00 PM72 °FMore clouds than sun.9 mph69%29.89 "HgN/A
12:00 PM72 °FMore clouds than sun.8 mph69%29.89 "HgN/A
11:00 AM70 °FMore clouds than sun.7 mph73%29.92 "HgN/A
10:00 AM70 °FOvercast.6 mph73%29.92 "HgN/A
9:00 AM70 °FBroken clouds.3 mph73%29.89 "HgN/A
8:00 AM68 °FOvercast.5 mph78%29.89 "HgN/A
7:00 AM66 °FOvercast.6 mph83%29.86 "HgN/A
6:00 AM68 °FOvercast.7 mph78%29.83 "HgN/A
5:00 AM66 °FOvercast.9 mph83%29.83 "HgN/A
4:00 AM68 °FOvercast.8 mph78%29.83 "HgN/A
3:00 AM68 °FOvercast.10 mph78%29.86 "HgN/A
2:00 AM68 °FMostly cloudy.14 mph83%29.86 "HgN/A
1:00 AM68 °FOvercast.14 mph83%29.89 "HgN/A
12:00 AM68 °FPassing clouds.13 mph83%29.92 "HgN/A
11:00 PM
Wed, Jul 1
68 °FPassing clouds.12 mph83%29.89 "HgN/A
10:00 PM68 °FOvercast.12 mph78%29.89 "HgN/A
Weather by CustomWeather, © 2015

See weather overviewHow to use our weather pages